User: anonymous   Login
Location: New Plymouth
(39.0670°S, 174.0830°E)
Time: 13:44:08
(UTC+13:00)
Language:

Meteor 1-25 Rocket - Orbit

View from above orbital plane
View from above orbital plane
View from above satellite
View from above satellite

Ground track
Ground track

The orbit data is extracted from the following two-line orbital elements,

1  8846U 76043B   19295.78769398 -.00000035  00000-0 -27582-4 0  9997
2  8846  81.2217 197.4465 0038794 113.0735 247.4533 14.08557309231811
Epoch (UTC): 22 October 2019 18:54:16
Eccentricity: 0.0038794
inclination: 81.2217°
perigee height: 836 km
apogee height: 892 km
right ascension of ascending node: 197.4465°
argument of perigee: 113.0735°
revolutions per day: 14.08557309
mean anomaly at epoch: 247.4533°
orbit number at epoch: 23181

The dashed part of the orbit path shows where the satellite is in the earth's shadow,  

DLR